RH
64 69 74 76 81 79 77 75 74 73 67 69 66 72 75 68 62 61 64 62 62 57 54 49 41 35 34 29 26 24 21 20 17 18 18 20 19 18 17 17 18 18 17
62 66 71 74 77 77 77 77 75 68 75 76 80 82 72 66 64 64 65 65 65 63 54 50 43 37 32 31 28 24 22 19 16 16 20 20 19 21 19 20 20 20 20
62 65 70 74 78 80 80 79 77 75 92 93 84 79 72 70 67 69 68 68 67 59 54 54 46 37 36 32 24 24 22 18 17 18 18 22 22 24 23 24 25 23 22
58 62 68 72 78 81 80 77 73 92 96 94 90 76 76 71 69 71 77 70 65 58 53 49 44 38 38 25 26 25 22 19 19 19 20 23 26 29 28 28 25 27 27
66 62 64 73 75 76 77 76 83 97 98 97 84 83 76 72 73 83 80 76 67 57 53 51 43 34 26 20 20 27 23 22 22 21 22 26 32 32 31 29 29 32 34
61 68 72 73 80 77 75 75 83 93 93 92 92 86 79 79 83 88 82 72 66 61 56 47 39 29 24 20 21 18 15 17 18 26 26 30 35 32 32 33 34 39 36
56 64 68 76 83 82 83 83 94 96 97 97 96 90 91 92 95 87 79 75 66 59 51 43 36 27 22 24 25 21 23 20 20 23 33 37 35 35 34 37 42 44 40
52 56 63 77 84 87 85 88 98 97 97 97 96 95 97 97 94 85 82 74 69 56 46 34 27 26 26 21 25 30 30 32 32 28 36 37 37 36 39 43 47 44 42
54 54 61 68 78 84 88 97 98 97 97 97 97 97 96 97 95 87 83 72 65 51 39 30 28 28 22 19 21 32 34 35 34 35 32 31 31 33 41 49 50 53 45
60 68 72 79 82 93 97 98 98 97 97 97 97 97 97 97 95 85 74 62 50 40 36 35 25 21 23 23 24 31 35 34 35 35 32 39 41 47 52 53 53 55 50
73 84 89 92 98 98 97 97 98 97 98 97 96 97 97 95 82 70 59 51 43 38 36 31 31 29 27 25 25 26 27 25 28 33 36 43 54 60 62 60 55 53 47
93 98 94 97 97 97 98 98 97 98 97 97 97 97 95 85 73 60 49 39 35 37 33 33 35 31 26 24 24 25 24 24 35 38 46 56 59 60 59 57 49 47 44
98 97 97 97 98 96 97 97 97 97 97 97 97 92 84 76 60 48 37 32 29 33 35 37 30 26 25 28 27 25 26 38 43 50 50 59 59 58 56 53 49 44 39
95 96 97 97 97 97 96 97 97 97 97 96 89 81 71 59 48 38 35 33 33 34 35 33 30 29 30 29 32 36 39 46 51 51 57 58 59 56 50 45 41 39 37
92 95 94 93 90 94 93 94 97 97 93 82 73 66 57 45 39 41 37 36 38 36 33 33 34 39 38 42 42 45 51 55 55 58 54 54 53 46 42 39 38 37 36
93 92 92 96 95 91 91 94 95 84 77 70 56 46 38 40 34 32 34 33 31 29 30 39 42 45 48 51 56 59 61 63 61 56 51 51 45 40 38 38 38 38 37
89 92 95 96 96 96 92 82 76 70 58 48 43 39 35 33 34 33 32 32 32 32 35 45 48 52 56 59 61 62 64 62 56 56 50 44 39 38 39 38 39 38 38
89 91 91 93 91 82 75 71 65 59 48 43 39 36 35 33 30 31 31 33 39 40 47 52 55 58 60 62 62 64 60 61 53 45 36 32 35 40 39 40 40 39 39
97 93 84 78 74 73 70 61 50 47 46 45 45 39 35 33 34 36 36 39 48 51 53 57 59 61 63 62 60 57 60 52 43 36 32 33 36 39 40 40 40 39 41
85 80 76 71 65 55 49 45 47 49 49 44 39 40 36 37 45 44 47 50 54 57 59 61 63 62 59 57 56 61 54 45 38 33 33 34 35 38 36 37 39 41 41
79 71 63 51 41 42 49 54 53 45 40 41 43 43 40 43 50 52 53 54 57 60 59 61 61 60 57 57 62 57 46 40 35 34 35 35 35 35 36 38 39 43 42
64 55 44 41 47 55 56 47 42 40 41 43 48 43 42 44 50 55 56 59 62 60 60 60 60 59 60 63 58 48 42 37 35 36 36 36 36 37 37 38 38 42 42
45 43 48 56 57 49 44 42 42 43 45 48 51 50 46 49 54 59 61 63 62 62 63 60 60 61 60 56 46 41 38 37 37 36 34 38 38 38 38 38 39 39 42
52 57 54 51 47 45 45 46 47 47 50 50 50 51 52 55 58 61 62 65 65 65 63 60 57 56 53 43 39 35 34 32 33 34 35 36 37 39 39 39 40 41 43
53 47 48 46 46 48 49 49 48 46 47 49 52 53 56 58 60 64 67 65 64 64 63 58 56 52 44 39 35 33 31 31 33 35 37 37 37 39 40 40 42 43 41
44 42 45 50 50 49 48 48 48 48 48 51 54 57 58 62 65 67 67 67 66 65 61 57 49 44 39 34 31 30 32 34 37 38 39 37 38 42 42 42 42 43 44